Regional Weather Roundup
Issued by NWS

Home | Current Version | Previous Version | Graphics & Text | Print | Product List | Glossary On
Versions: 1 2 3 4 5 6 7 8 9 10 11 12 13 14 15 16 17 18 19 20 21 22 23 24 25 26 27 28 29 30 31 32 33 34 35 36 37 38 39 40 41 42 43 44 45 46 47 48 49 50
485
ASUS45 KPSR 300110
RWRAZ

ARIZONA HOURLY REGIONAL WEATHER ROUNDUP
NATIONAL WEATHER SERVICE PHOENIX AZ
600 PM MST THU SEP 29 2016

NOTE: FAIR INDICATES FEW OR NO CLOUDS BELOW 12,000 FEET WITH NO
SIGNIFICANT WEATHER AND/OR OBSTRUCTIONS TO VISIBILITY.

AZZ001>003-036-300200-
NORTHWEST ARIZONA

CITY           SKY/WX    TMP DP  RH WIND       PRES   REMARKS
BULLHEAD CITY  PTCLDY    95  48  20 SW6       29.95S
KINGMAN        CLOUDY    81  46  29 SW13      30.15R
$$

AZZ004>008-015-016-018-300200-
NORTH CENTRAL ARIZONA

CITY           SKY/WX    TMP DP  RH WIND       PRES   REMARKS
GRAND CANYON   CLOUDY    53  49  86 NE9       30.38R
PRESCOTT       PTCLDY    69  53  56 VRB6      30.26F
FLAGSTAFF      PTCLDY    55  51  86 CALM      30.39S
PAYSON         CLEAR     70  50  49 CALM      30.29F
PAGE           MOCLDY    65  60  84 NE6       30.26F
$$

AZZ009>014-017-300200-
NORTHEAST ARIZONA

CITY           SKY/WX    TMP DP  RH WIND       PRES   REMARKS
WINSLOW        PTCLDY    63  56  78 E9        30.30F
SAINT JOHNS    PTCLDY    61  55  81 SE3       30.34F
WINDOW ROCK    MOCLDY    56  50  80 SE5       30.42F
SHOW LOW       CLEAR     55  52  88 E13       30.38S
$$

AZZ023-300200-
GREATER PHOENIX AREA

CITY           SKY/WX    TMP DP  RH WIND       PRES   REMARKS
PHOENIX        PTCLDY    91  54  28 N6        29.97F
BUCKEYE        CLEAR     88  57  35 SE3       30.00S
GLENDALE       PTCLDY    91  55  29 CALM      29.99F
LUKE AFB       CLEAR     92  54  28 NW5       29.97F
DEER VALLEY    CLEAR     90  52  27 SE3       29.99F
SCOTTSDALE     FAIR      90  51  26 CALM      30.01F
MESA-FALCON    CLEAR    N/A N/A N/A N9        29.97S
MESA-GATEWAY   CLEAR     90  55  31 NW7       30.00S
CHANDLER       CLEAR     91  54  27 VRB6      29.98F
$$

AZZ027-028-300200-
SOUTHWEST MARICOPA COUNTY AND PINAL COUNTY

CITY           SKY/WX    TMP DP  RH WIND       PRES   REMARKS
CASA GRANDE    CLEAR     90  54  29 NW7       30.02S
GILA BEND      PTCLDY    93  53  25 N5        29.95S
$$

AZZ503-504-507>509-300200-
SOUTHEAST ARIZONA

CITY           SKY/WX    TMP DP  RH WIND       PRES   REMARKS
TUCSON         CLOUDY    71  63  75 E15G25    30.11R THUNDER
DAVIS-MONTHAN  TSTM      68  64  88 SE12      30.11F FOG
RYAN FIELD     CLEAR     84  61  45 NW6       30.08R
NOGALES        PTCLDY    73  59  61 NE12      30.16R
SIERRA VISTA   PTCLDY    64  60  87 W7        30.24R
DOUGLAS        MOCLDY    70  58  65 N16       30.19R
SAFFORD        LGT RAIN  73  66  78 W14       30.11R
$$

AZZ020-021-025-026-031-300200-
SOUTHWEST ARIZONA

CITY           SKY/WX    TMP DP  RH WIND       PRES   REMARKS
YUMA           NOT AVBL
$$

CAZ031-033-041-043-047-048-061-300200-
SOUTHERN CALIFORNIA

CITY           SKY/WX    TMP DP  RH WIND       PRES   REMARKS
DOWNTOWN L.A.  CLEAR     81  57  43 VRB3      29.97R
L.A. AIRPORT   PTCLDY    75  58  55 SW12      29.98S
SAN DIEGO      PTCLDY    78  62  57 NW9       30.01R
BURBANK        CLEAR     91  48  22 CALM      29.98S
ONTARIO        PTCLDY    89  48  24 W15       29.99R
RIVERSIDE      CLEAR     89  53  29 W15       29.98R
PALM SPRINGS   PTCLDY    93  51  23 E10       29.95S
EL CENTRO NAS  MOCLDY    89  54  30 W14       29.95R
IMPERIAL       MOCLDY    89  59  36 W14       29.92S
BLYTHE         PTCLDY    93  46  19 E5        29.94F
NEEDLES        PTCLDY    96  49  20 VRB6      29.96S
$$

NVZ020-UTZ003-300200-
SOUTHERN NEVADA-UTAH

CITY           SKY/WX    TMP DP  RH WIND       PRES   REMARKS
LAS VEGAS      PTCLDY    88  44  21 S5        30.03S
SALT LAKE CITY PTCLDY    72  51  47 NW3       30.16S
$$

NMZ009-TXZ055-300200-
NEW MEXICO-WEST TEXAS

CITY           SKY/WX    TMP DP  RH WIND       PRES   REMARKS
ALBUQUERQUE    LGT RAIN  64  58  80 N12       30.41R
EL PASO        PTCLDY    80  44  27 E16G25    30.21S
$$


........................KEY........................
SKY/WX - SKY CONDITION/WEATHER
TMP    - TEMPERATURE IN FAHRENHEIT
DP     - DEW POINT IN FAHRENHEIT
RH     - RELATIVE HUMIDITY IN PERCENT
WIND   - DIRECTION AND SPEED IN MILES PER HOUR (MPH)
VRB    - VARIABLE WIND DIRECTION
PRES   - MEAN SEA LEVEL PRESSURE IN INCHES OF MERCURY
         F - FALLING PRESSURE   R - RISING PRESSURE
         S - STEADY PRESSURE
VSB    - VISIBILITY IN MILES
HX     - HEAT INDEX IN FAHRENHEIT
WCI    - WIND CHILL INDEX IN FAHRENHEIT
TC     - TEMPERATURE IN CELSIUS WHICH IS ALSO KNOWN AS
         TEMPERATURE IN CENTIGRADE
AFB    - AIR FORCE BASE
         LUKE AFB IS LUKE AIR FORCE BASE
         DAVIS-MONTHAN IS DAVIS-MONTHAN AIR FORCE BASE
NAS    - NAVAL AIR STATION
         EL CENTRO NAS IS EL CENTRO NAVAL AIR STATION
N/A    - NOT AVAILABLE





USA.gov is the U.S. government's official web portal to all federal, state and local government web resources and services.